Location: *
(51.5000°N, 0.1100°W)
Time: 16:34:21
(UTC+00:00)

MSX - Pass Details

Date: 25 May 2024
Orbit: 893 x 906 km, 99.0° (Epoch: 16 June)

Event Time Altitude Azimuth Distance (km) Brightness Sun altitude
Rises 02:07:45 0° 15° (NNE) 3,526 8.6 -12.1°
Reaches altitude 10° 02:10:10 10° 16° (NNE) 2,580 7.6 -11.9°
Maximum altitude 02:15:56 88° 104° (ESE) 903 3.9 -11.4°
Enters shadow 02:21:09 13° 197° (SSW) 2,362 5.4 -10.9°
